This is the latest recevied weather packets stored in our database for station/object IR9AK-10. If no packets are shown the sender has not sent any weather packets the latest 10 day(s).
| Time | Temp. | Humidity | Pressure | Rain* | Wind** | Luminosity | Snow |
|---|---|---|---|---|---|---|---|
| 1787946633 | 42.22° C | 21% | 1060.1 hPa | - | - | - | - |
| 1787946034 | 42.22° C | 23% | 1060.1 hPa | - | - | - | - |
| 1787945434 | 42.22° C | 23% | 1060.2 hPa | - | - | - | - |
| 1787944834 | 42.78° C | 26% | 1060.3 hPa | - | - | - | - |
| 1787944235 | 42.78° C | 31% | 1060.3 hPa | - | - | - | - |
| 1787943637 | 42.78° C | 36% | 1060.3 hPa | - | - | - | - |
| 1787943038 | 42.78° C | 35% | 1060.2 hPa | - | - | - | - |
| 1787942438 | 43.33° C | 34% | 1060 hPa | - | - | - | - |
| 1787941839 | 43.33° C | 25% | 1059.8 hPa | - | - | - | - |
| 1787941239 | 43.89° C | 25% | 1059.6 hPa | - | - | - | - |
| 1787940640 | 43.89° C | 26% | 1059.6 hPa | - | - | - | - |
| 1787940041 | 43.89° C | 30% | 1059.5 hPa | - | - | - | - |
| 1787939441 | 43.89° C | 28% | 1059.5 hPa | - | - | - | - |
| 1787938842 | 43.89° C | 29% | 1276.8 hPa | - | - | - | - |
| 1787938244 | 44.44° C | 32% | 1059.4 hPa | - | - | - | - |
| 1787937644 | 44.44° C | 32% | 1059.4 hPa | - | - | - | - |
| 1787937046 | 44.44° C | 32% | 1059.4 hPa | - | - | - | - |
| 1787936446 | 45° C | 32% | 1059.4 hPa | - | - | - | - |
| 1787935848 | 45° C | 33% | 1059.5 hPa | - | - | - | - |
| 1787935248 | 44.44° C | 33% | 1059.7 hPa | - | - | - | - |
| 1787934650 | 45° C | 33% | 1059.7 hPa | - | - | - | - |
| 1787934050 | 45° C | 33% | 1059.8 hPa | - | - | - | - |
| 1787933451 | 45.56° C | 32% | 1059.9 hPa | - | - | - | - |
| 1787932851 | 45.56° C | 31% | 1059.9 hPa | - | - | - | - |
| 1787932252 | 45.56° C | 30% | 1059.9 hPa | - | - | - | - |
* Rain since midnight (hover to see other rain measurements)
** Current wind speed in m/s (hover to see current wind gust speed)